Time,TemperatureF,DewpointF,PressureIn,WindDirection,WindDirectionDegrees,WindSpeedMPH,WindSpeedGustMPH,Humidity,HourlyPrecipIn,Conditions,Clouds,dailyrainin,SoftwareType,DateUTC
2013-05-20 00:02:00,65.0,-99.9,-100.00,West,266,24.0,39.0,-999,0.17,,,0.59,,2013-05-20 05:02:00,
2013-05-20 00:12:00,66.0,-99.9,-100.00,WSW,246,9.0,15.0,-999,0.25,,,0.67,,2013-05-20 05:12:00,
2013-05-20 00:22:00,66.0,-99.9,-100.00,WSW,246,9.0,15.0,-999,0.25,,,0.67,,2013-05-20 05:22:00,
2013-05-20 00:32:00,66.0,-99.9,-100.00,WSW,246,9.0,15.0,-999,0.25,,,0.67,,2013-05-20 05:32:00,
2013-05-20 00:42:00,65.0,-99.9,-100.00,West,270,5.0,7.0,-999,0.09,,,0.68,,2013-05-20 05:42:00,
2013-05-20 00:52:00,65.0,-99.9,-100.00,West,270,5.0,7.0,-999,0.09,,,0.68,,2013-05-20 05:52:00,
2013-05-20 01:01:00,65.0,-99.9,-100.00,West,270,5.0,7.0,-999,0.09,,,0.68,,2013-05-20 06:01:00,
2013-05-20 01:11:00,65.0,-99.9,-100.00,SE,145,4.0,6.0,-999,0.01,,,0.68,,2013-05-20 06:11:00,
2013-05-20 01:22:00,65.0,-99.9,-100.00,SE,145,4.0,6.0,-999,0.01,,,0.68,,2013-05-20 06:22:00,
2013-05-20 01:32:00,65.0,-99.9,-100.00,SSE,157,6.0,8.0,-999,0.00,,,0.68,,2013-05-20 06:32:00,
2013-05-20 01:42:00,65.0,-99.9,-100.00,SSE,157,6.0,8.0,-999,0.00,,,0.68,,2013-05-20 06:42:00,
2013-05-20 01:52:00,65.0,-99.9,-100.00,SSE,157,6.0,8.0,-999,0.00,,,0.68,,2013-05-20 06:52:00,
2013-05-20 02:02:00,65.0,-99.9,-100.00,SSE,157,6.0,8.0,-999,0.00,,,0.68,,2013-05-20 07:02:00,
2013-05-20 02:12:00,66.0,-99.9,-100.00,South,180,7.0,10.0,-999,0.00,,,0.68,,2013-05-20 07:12:00,
2013-05-20 02:22:00,66.0,-99.9,-100.00,South,180,7.0,10.0,-999,0.00,,,0.68,,2013-05-20 07:22:00,
2013-05-20 02:32:00,66.0,-99.9,-100.00,South,180,7.0,10.0,-999,0.00,,,0.68,,2013-05-20 07:32:00,
2013-05-20 02:42:00,67.0,-99.9,-100.00,SSW,202,7.0,8.0,-999,0.00,,,0.68,,2013-05-20 07:42:00,
2013-05-20 02:52:00,67.0,-99.9,-100.00,SSW,202,7.0,8.0,-999,0.00,,,0.68,,2013-05-20 07:52:00,
2013-05-20 03:02:00,67.0,-99.9,-100.00,SSW,202,7.0,8.0,-999,0.00,,,0.68,,2013-05-20 08:02:00,
2013-05-20 03:11:00,66.0,-99.9,-100.00,SW,232,12.0,16.0,-999,0.00,,,0.68,,2013-05-20 08:11:00,
2013-05-20 03:22:00,66.0,-99.9,-100.00,SW,232,12.0,16.0,-999,0.00,,,0.68,,2013-05-20 08:22:00,
2013-05-20 03:32:00,66.0,-99.9,-100.00,SW,232,12.0,16.0,-999,0.00,,,0.68,,2013-05-20 08:32:00,
2013-05-20 03:42:00,66.0,-99.9,-100.00,South,186,5.0,9.0,-999,0.00,,,0.68,,2013-05-20 08:42:00,
2013-05-20 03:52:00,66.0,-99.9,-100.00,South,186,5.0,9.0,-999,0.00,,,0.68,,2013-05-20 08:52:00,
2013-05-20 04:02:00,66.0,-99.9,-100.00,South,186,5.0,9.0,-999,0.00,,,0.68,,2013-05-20 09:02:00,
2013-05-20 04:12:00,66.0,-99.9,-100.00,SSE,159,8.0,10.0,-999,0.00,,,0.68,,2013-05-20 09:12:00,
2013-05-20 04:22:00,66.0,-99.9,-100.00,SSE,159,8.0,10.0,-999,0.00,,,0.68,,2013-05-20 09:22:00,
2013-05-20 04:33:00,66.0,-99.9,-100.00,SSE,159,8.0,10.0,-999,0.00,,,0.68,,2013-05-20 09:33:00,
2013-05-20 04:43:00,66.0,-99.9,-100.00,SSE,156,12.0,16.0,-999,0.00,,,0.68,,2013-05-20 09:43:00,
2013-05-20 04:53:00,66.0,-99.9,-100.00,SSE,156,12.0,16.0,-999,0.00,,,0.68,,2013-05-20 09:53:00,
2013-05-20 05:03:00,66.0,-99.9,-100.00,SSE,156,12.0,16.0,-999,0.00,,,0.68,,2013-05-20 10:03:00,
2013-05-20 05:12:00,66.0,-99.9,-100.00,SSE,160,12.0,15.0,-999,0.00,,,0.68,,2013-05-20 10:12:00,
2013-05-20 05:22:00,66.0,-99.9,-100.00,SSE,160,12.0,15.0,-999,0.00,,,0.68,,2013-05-20 10:22:00,
2013-05-20 05:33:00,66.0,-99.9,-100.00,SSE,160,12.0,15.0,-999,0.00,,,0.68,,2013-05-20 10:33:00,
2013-05-20 05:42:00,65.0,-99.9,-100.00,South,170,14.0,18.0,-999,0.00,,,0.68,,2013-05-20 10:42:00,
2013-05-20 05:53:00,65.0,-99.9,-100.00,South,170,14.0,18.0,-999,0.00,,,0.68,,2013-05-20 10:53:00,
2013-05-20 06:03:00,65.0,-99.9,-100.00,South,170,14.0,18.0,-999,0.00,,,0.68,,2013-05-20 11:03:00,
2013-05-20 06:12:00,64.0,-99.9,-100.00,SSE,160,13.0,18.0,-999,0.00,,,0.68,,2013-05-20 11:12:00,
2013-05-20 06:22:00,64.0,-99.9,-100.00,SSE,160,13.0,18.0,-999,0.00,,,0.68,,2013-05-20 11:22:00,
2013-05-20 06:32:00,64.0,-99.9,-100.00,SSE,160,13.0,18.0,-999,0.00,,,0.68,,2013-05-20 11:32:00,
2013-05-20 06:42:00,64.0,-99.9,-100.00,SSE,166,12.0,15.0,-999,0.00,,,0.68,,2013-05-20 11:42:00,
2013-05-20 06:52:00,64.0,-99.9,-100.00,SSE,166,12.0,15.0,-999,0.00,,,0.68,,2013-05-20 11:52:00,
2013-05-20 07:01:00,64.0,-99.9,-100.00,SSE,166,12.0,15.0,-999,0.00,,,0.68,,2013-05-20 12:01:00,
2013-05-20 07:12:00,64.0,-99.9,-100.00,South,179,9.0,12.0,-999,0.00,,,0.63,,2013-05-20 12:12:00,
2013-05-20 07:21:00,64.0,-99.9,-100.00,South,179,9.0,12.0,-999,0.00,,,0.63,,2013-05-20 12:21:00,
2013-05-20 07:32:00,64.0,-99.9,-100.00,South,179,9.0,12.0,-999,0.00,,,0.63,,2013-05-20 12:32:00,
2013-05-20 07:40:00,65.0,-99.9,-100.00,South,175,8.0,11.0,-999,0.00,,,0.35,,2013-05-20 12:40:00,
2013-05-20 07:42:00,65.0,-99.9,-100.00,SSE,158,8.0,11.0,-999,0.00,,,0.35,,2013-05-20 12:42:00,
2013-05-20 07:52:00,65.0,-99.9,-100.00,SSE,158,8.0,11.0,-999,0.00,,,0.35,,2013-05-20 12:52:00,
2013-05-20 08:01:00,65.0,-99.9,-100.00,SSE,158,8.0,11.0,-999,0.00,,,0.35,,2013-05-20 13:01:00,
2013-05-20 08:11:00,65.0,-99.9,-100.00,South,175,8.0,11.0,-999,0.00,,,0.35,,2013-05-20 13:11:00,
2013-05-20 08:22:00,65.0,-99.9,-100.00,South,175,8.0,11.0,-999,0.00,,,0.35,,2013-05-20 13:22:00,
2013-05-20 08:32:00,65.0,-99.9,-100.00,South,175,8.0,11.0,-999,0.00,,,0.35,,2013-05-20 13:32:00,
2013-05-20 09:11:00,68.0,-99.9,-100.00,South,191,8.0,14.0,-999,0.00,,,0.34,,2013-05-20 14:11:00,
2013-05-20 09:22:00,68.0,-99.9,-100.00,South,191,8.0,14.0,-999,0.00,,,0.34,,2013-05-20 14:22:00,
2013-05-20 09:32:00,68.0,-99.9,-100.00,South,191,8.0,14.0,-999,0.00,,,0.34,,2013-05-20 14:32:00,
2013-05-20 09:42:00,69.0,-99.9,-100.00,SSW,207,10.0,13.0,-999,0.00,,,0.34,,2013-05-20 14:42:00,
2013-05-20 09:53:00,69.0,-99.9,-100.00,SSW,207,10.0,13.0,-999,0.00,,,0.34,,2013-05-20 14:53:00,
2013-05-20 10:01:00,69.0,-99.9,-100.00,SSW,207,10.0,13.0,-999,0.00,,,0.34,,2013-05-20 15:01:00,
2013-05-20 10:12:00,71.0,-99.9,-100.00,South,190,7.0,20.0,-999,0.00,,,0.34,,2013-05-20 15:12:00,
2013-05-20 10:22:00,71.0,-99.9,-100.00,South,190,7.0,20.0,-999,0.00,,,0.34,,2013-05-20 15:22:00,
2013-05-20 10:34:00,71.0,-99.9,-100.00,South,190,7.0,20.0,-999,0.00,,,0.34,,2013-05-20 15:34:00,
2013-05-20 10:43:00,71.0,-99.9,-100.00,SSW,193,11.0,17.0,-999,0.00,,,0.34,,2013-05-20 15:43:00,
2013-05-20 10:53:00,71.0,-99.9,-100.00,SSW,193,11.0,17.0,-999,0.00,,,0.34,,2013-05-20 15:53:00,
2013-05-20 11:03:00,71.0,-99.9,-100.00,SSW,193,11.0,17.0,-999,0.00,,,0.34,,2013-05-20 16:03:00,
2013-05-20 11:13:00,71.0,-99.9,-100.00,South,185,10.0,16.0,-999,0.00,,,0.34,,2013-05-20 16:13:00,
2013-05-20 11:23:00,71.0,-99.9,-100.00,South,185,10.0,16.0,-999,0.00,,,0.34,,2013-05-20 16:23:00,
2013-05-20 11:33:00,71.0,-99.9,-100.00,South,185,10.0,16.0,-999,0.00,,,0.34,,2013-05-20 16:33:00,
2013-05-20 11:42:00,74.0,-99.9,-100.00,SW,218,10.0,12.0,-999,0.00,,,0.34,,2013-05-20 16:42:00,
2013-05-20 11:53:00,74.0,-99.9,-100.00,SW,218,10.0,12.0,-999,0.00,,,0.34,,2013-05-20 16:53:00,
2013-05-20 12:03:00,74.0,-99.9,-100.00,SW,218,10.0,12.0,-999,0.00,,,0.34,,2013-05-20 17:03:00,
2013-05-20 12:12:00,75.0,-99.9,-100.00,SW,216,10.0,15.0,-999,0.00,,,0.34,,2013-05-20 17:12:00,
2013-05-20 12:22:00,75.0,-99.9,-100.00,SW,216,10.0,15.0,-999,0.00,,,0.34,,2013-05-20 17:22:00,
2013-05-20 12:33:00,75.0,-99.9,-100.00,SW,216,10.0,15.0,-999,0.00,,,0.34,,2013-05-20 17:33:00,
2013-05-20 12:45:00,76.0,-99.9,-100.00,SW,217,6.0,11.0,-999,0.00,,,0.34,,2013-05-20 17:45:00,
2013-05-20 12:53:00,76.0,-99.9,-100.00,SW,217,6.0,11.0,-999,0.00,,,0.34,,2013-05-20 17:53:00,
2013-05-20 13:02:00,76.0,-99.9,-100.00,SW,217,6.0,11.0,-999,0.00,,,0.34,,2013-05-20 18:02:00,
2013-05-20 13:12:00,77.0,-99.9,-100.00,SSW,205,8.0,14.0,-999,0.00,,,0.27,,2013-05-20 18:12:00,
2013-05-20 13:23:00,77.0,-99.9,-100.00,SSW,205,8.0,14.0,-999,0.00,,,0.27,,2013-05-20 18:23:00,
2013-05-20 13:33:00,77.0,-99.9,-100.00,SSW,205,8.0,14.0,-999,0.00,,,0.27,,2013-05-20 18:33:00,
2013-05-20 13:40:00,78.0,-99.9,-100.00,SSW,211,8.0,11.0,-999,0.00,,,0.27,,2013-05-20 18:40:00,
2013-05-20 13:42:00,78.0,-99.9,-100.00,SSW,211,11.0,20.0,-999,0.00,,,0.27,,2013-05-20 18:42:00,
2013-05-20 13:55:00,78.0,-99.9,-100.00,SSW,211,11.0,20.0,-999,0.00,,,0.27,,2013-05-20 18:55:00,
2013-05-20 14:04:00,78.0,-99.9,-100.00,SSW,211,11.0,20.0,-999,0.00,,,0.27,,2013-05-20 19:04:00,
2013-05-20 14:12:00,78.0,-99.9,-100.00,SSW,211,8.0,11.0,-999,0.00,,,0.27,,2013-05-20 19:12:00,
2013-05-20 14:22:00,78.0,-99.9,-100.00,SSW,211,8.0,11.0,-999,0.00,,,0.27,,2013-05-20 19:22:00,
2013-05-20 14:33:00,78.0,-99.9,-100.00,SSW,211,8.0,11.0,-999,0.00,,,0.27,,2013-05-20 19:33:00,
2013-05-20 15:12:00,77.0,-99.9,-100.00,SSW,212,8.0,17.0,-999,0.00,,,0.27,,2013-05-20 20:12:00,
2013-05-20 15:22:00,77.0,-99.9,-100.00,SSW,212,8.0,17.0,-999,0.00,,,0.27,,2013-05-20 20:22:00,
2013-05-20 15:33:00,77.0,-99.9,-100.00,SSW,212,8.0,17.0,-999,0.00,,,0.27,,2013-05-20 20:33:00,
2013-05-20 15:40:00,78.0,-99.9,-100.00,South,180,8.0,12.0,-999,0.00,,,0.27,,2013-05-20 20:40:00,
2013-05-20 15:42:00,80.0,-99.9,-100.00,SSW,199,7.0,10.0,-999,0.00,,,0.27,,2013-05-20 20:42:00,
2013-05-20 15:52:00,80.0,-99.9,-100.00,SSW,199,7.0,10.0,-999,0.00,,,0.27,,2013-05-20 20:52:00,
2013-05-20 16:01:00,80.0,-99.9,-100.00,SSW,199,7.0,10.0,-999,0.00,,,0.27,,2013-05-20 21:01:00,
2013-05-20 16:11:00,78.0,-99.9,-100.00,South,180,8.0,12.0,-999,0.00,,,0.27,,2013-05-20 21:11:00,
2013-05-20 16:22:00,78.0,-99.9,-100.00,South,180,8.0,12.0,-999,0.00,,,0.27,,2013-05-20 21:22:00,
2013-05-20 16:33:00,78.0,-99.9,-100.00,South,180,8.0,12.0,-999,0.00,,,0.27,,2013-05-20 21:33:00,
2013-05-20 17:13:00,81.0,-99.9,-100.00,SSW,211,6.0,10.0,-999,0.00,,,0.27,,2013-05-20 22:13:00,
2013-05-20 17:23:00,81.0,-99.9,-100.00,SSW,211,6.0,10.0,-999,0.00,,,0.27,,2013-05-20 22:23:00,
2013-05-20 17:33:00,81.0,-99.9,-100.00,SSW,211,6.0,10.0,-999,0.00,,,0.27,,2013-05-20 22:33:00,
2013-05-20 17:42:00,79.0,-99.9,-100.00,SSW,203,9.0,15.0,-999,0.00,,,0.27,,2013-05-20 22:42:00,
2013-05-20 17:53:00,79.0,-99.9,-100.00,SSW,203,9.0,15.0,-999,0.00,,,0.27,,2013-05-20 22:53:00,
2013-05-20 18:03:00,79.0,-99.9,-100.00,SSW,203,9.0,15.0,-999,0.00,,,0.27,,2013-05-20 23:03:00,
2013-05-20 18:12:00,79.0,-99.9,-100.00,South,186,9.0,14.0,-999,0.00,,,0.27,,2013-05-20 23:12:00,
2013-05-20 18:22:00,79.0,-99.9,-100.00,South,186,9.0,14.0,-999,0.00,,,0.27,,2013-05-20 23:22:00,
2013-05-20 18:32:00,79.0,-99.9,-100.00,South,186,9.0,14.0,-999,0.00,,,0.27,,2013-05-20 23:32:00,
2013-05-20 18:42:00,78.0,-99.9,-100.00,SSW,209,6.0,11.0,-999,0.00,,,0.26,,2013-05-20 23:42:00,
2013-05-20 18:53:00,78.0,-99.9,-100.00,SSW,209,6.0,11.0,-999,0.00,,,0.26,,2013-05-20 23:53:00,
2013-05-20 19:01:00,78.0,-99.9,-100.00,SSW,209,6.0,11.0,-999,0.00,,,0.26,,2013-05-21 00:01:00,
2013-05-20 19:12:00,77.0,-99.9,-100.00,SSW,194,5.0,9.0,-999,0.00,,,0.26,,2013-05-21 00:12:00,
2013-05-20 19:22:00,77.0,-99.9,-100.00,SSW,194,5.0,9.0,-999,0.00,,,0.26,,2013-05-21 00:22:00,
2013-05-20 19:32:00,77.0,-99.9,-100.00,SSW,194,5.0,9.0,-999,0.00,,,0.26,,2013-05-21 00:32:00,
2013-05-20 19:42:00,75.0,-99.9,-100.00,SSE,163,10.0,12.0,-999,0.00,,,0.26,,2013-05-21 00:42:00,
2013-05-20 19:52:00,75.0,-99.9,-100.00,SSE,163,10.0,12.0,-999,0.00,,,0.26,,2013-05-21 00:52:00,
2013-05-20 20:01:00,75.0,-99.9,-100.00,SSE,163,10.0,12.0,-999,0.00,,,0.26,,2013-05-21 01:01:00,
2013-05-20 20:12:00,75.0,-99.9,-100.00,SSE,158,19.0,23.0,-999,0.00,,,0.26,,2013-05-21 01:12:00,
2013-05-20 20:22:00,75.0,-99.9,-100.00,SSE,158,19.0,23.0,-999,0.00,,,0.26,,2013-05-21 01:22:00,
2013-05-20 20:32:00,75.0,-99.9,-100.00,SSE,158,19.0,23.0,-999,0.00,,,0.26,,2013-05-21 01:32:00,
2013-05-20 20:42:00,71.0,-99.9,-100.00,SSE,154,21.0,30.0,-999,0.00,,,0.26,,2013-05-21 01:42:00,
2013-05-20 20:53:00,71.0,-99.9,-100.00,SSE,154,21.0,30.0,-999,0.00,,,0.26,,2013-05-21 01:53:00,
2013-05-20 21:02:00,71.0,-99.9,-100.00,SSE,154,21.0,30.0,-999,0.00,,,0.26,,2013-05-21 02:02:00,
2013-05-20 21:11:00,69.0,-99.9,-100.00,SE,128,17.0,26.0,-999,0.02,,,0.28,,2013-05-21 02:11:00,
2013-05-20 21:22:00,69.0,-99.9,-100.00,SE,128,17.0,26.0,-999,0.02,,,0.28,,2013-05-21 02:22:00,
2013-05-20 21:32:00,69.0,-99.9,-100.00,SE,128,17.0,26.0,-999,0.02,,,0.28,,2013-05-21 02:32:00,
2013-05-20 21:42:00,69.0,-99.9,-100.00,South,173,11.0,18.0,-999,0.02,,,0.28,,2013-05-21 02:42:00,
2013-05-20 21:52:00,69.0,-99.9,-100.00,South,173,11.0,18.0,-999,0.02,,,0.28,,2013-05-21 02:52:00,
2013-05-20 22:02:00,69.0,-99.9,-100.00,South,173,11.0,18.0,-999,0.02,,,0.28,,2013-05-21 03:02:00,
2013-05-20 22:11:00,69.0,-99.9,-100.00,SSE,161,15.0,17.0,-999,0.00,,,0.28,,2013-05-21 03:11:00,
2013-05-20 22:22:00,69.0,-99.9,-100.00,SSE,161,15.0,17.0,-999,0.00,,,0.28,,2013-05-21 03:22:00,
2013-05-20 22:33:00,69.0,-99.9,-100.00,SSE,161,15.0,17.0,-999,0.00,,,0.28,,2013-05-21 03:33:00,
2013-05-20 22:40:00,68.0,-99.9,-100.00,SSE,168,12.0,13.0,-999,0.00,,,0.28,,2013-05-21 03:40:00,
2013-05-20 22:43:00,68.0,-99.9,-100.00,SSE,160,12.0,14.0,-999,0.00,,,0.28,,2013-05-21 03:43:00,
2013-05-20 22:54:00,68.0,-99.9,-100.00,SSE,160,12.0,14.0,-999,0.00,,,0.28,,2013-05-21 03:54:00,
2013-05-20 23:03:00,68.0,-99.9,-100.00,SSE,160,12.0,14.0,-999,0.00,,,0.28,,2013-05-21 04:03:00,
2013-05-20 23:13:00,68.0,-99.9,-100.00,SSE,168,12.0,13.0,-999,0.00,,,0.28,,2013-05-21 04:13:00,
2013-05-20 23:23:00,68.0,-99.9,-100.00,SSE,168,12.0,13.0,-999,0.00,,,0.28,,2013-05-21 04:23:00,
2013-05-20 23:33:00,68.0,-99.9,-100.00,SSE,168,12.0,13.0,-999,0.00,,,0.28,,2013-05-21 04:33:00,